Location: Moscow
(38.8570°N, 84.2291°W)
Time: 04:24:00
(UTC+00:00)

OAO 3 Rocket - Visible Passes

Search period start: 19 February 2026 00:00
Search period end: 01 March 2026 00:00
Orbit: 613 x 661 km, 35.0° (Epoch: 18 February)

Date Brightness Start Highest point End Pass type
(mag) Time Alt. Az. Time Alt. Az. Time Alt. Az.
20 Feb 5.7 01:35:11 10° SSW 01:35:29 11° SSW 01:35:29 11° SSW visible
21 Feb 5.7 01:56:10 10° SW 01:56:53 13° SSW 01:56:53 13° SSW visible
22 Feb 4.9 00:36:44 10° SSW 00:39:50 17° SSE 00:40:48 16° SE visible
22 Feb 5.9 02:17:46 10° SW 02:18:13 12° SW 02:18:13 12° SW visible
23 Feb 4.3 00:57:38 10° SW 01:01:42 27° SSE 01:02:04 27° SSE visible
24 Feb 3.9 01:19:11 10° SW 01:23:17 39° S 01:23:17 39° S visible
24 Feb 4.5 23:59:06 10° SW 00:03:06 26° SSE 00:07:02 10° ESE visible
25 Feb 4.2 01:41:04 10° WSW 01:44:26 39° SW 01:44:26 39° SW visible
26 Feb 4.0 00:20:36 10° SW 00:25:04 38° SSE 00:28:08 18° ESE visible
26 Feb 4.9 02:03:06 10° WSW 02:05:33 28° WSW 02:05:33 28° WSW visible
27 Feb 3.6 00:42:27 10° WSW 00:47:05 50° S 00:49:13 29° ESE visible
27 Feb 5.6 02:25:15 10° W 02:26:37 18° WSW 02:26:37 18° WSW visible
28 Feb 3.5 01:04:28 10° WSW 01:09:11 55° S 01:10:16 44° SE visible
28 Feb 6.2 02:47:27 10° W 02:47:40 11° W 02:47:40 11° W visible
